www.pogodaiklimat.ru
ПОГОДА в Биндэре
Время
(UTC), дата
12 26.07
15 26.07
18 26.07
21 26.07
00 27.07
03 27.07
06 27.07
09 27.07
12 27.07
15 27.07
18 27.07
21 27.07
00 28.07
03 28.07
06 28.07
09 28.07
12 28.07
15 28.07
18 28.07
21 28.07
00 29.07
03 29.07
06 29.07
09 29.07
12 29.07
15 29.07
18 29.07
21 29.07
00 30.07
03 30.07
06 30.07
09 30.07
12 30.07
15 30.07
18 30.07
21 30.07
00 31.07
03 31.07
06 31.07
09 31.07
12 31.07
15 31.07
18 31.07
21 31.07
00 1.08
03 1.08
06 1.08
09 1.08
12 1.08
15 1.08
18 1.08
21 1.08
03 2.08
09 2.08
Ветер
(напр.,м/с)
Видим. Явления Облачность Т
(С)
Тd
(С)
f
(%)
Тe
(С)
Тes
(С)
Комфортность P
(гПа)
Po
(гПа)
Тmin
(С)
Tmax
(С)
R
(мм)
R24
(мм)
S
(см)
СВ 3 20 км 6/5 600 м
[Cb calv Ci]
+18.1 +11.1 64 +18 +18 1006.4 890.4 +21.9
З 3 н/о 8/6 600 м
[Sc Ac lent]
+14.1 +11.5 84 +13 +13 1007.1 890.9
З 2 н/о 9/8 600 м
[Sc Ac As]
+12.6 +11.1 91 +12 +12 1006.6 890.5
С 2 20 км 10/5 600 м
[Sc Ac As]
+12.2 +11.2 94 +11 +11 1006.9 890.3
ЮВ 1 20 км 9/5 600 м
[Cu med, cong Ac As Cc]
+14.0 +11.6 85 +14 +16 1007.1 890.6 +12.0
ЮВ 3 20 км 6/4 600 м
[Cb calv Cs]
+19.9 +12.6 63 +22 +29 комфорт 1005.5 889.6
Ю 2 4000 м осадки на расстоянии {гроза} туман 9/8 600 м
[Cb cap Cs]
+22.6 +12.5 53 +25 +28 комфорт 1003.7 888.2
С 7 4000 м гроза, ливневой дождь 9/9 600 м
[Cb cap]
+16.7 +13.5 81 +15 +16 1004.8 888.0
СВ 1 20 км {гроза, ливн. дождь} 5/3 600 м
[Cb cap Ac cuf Cc]
+18.0 +13.4 74 +19 +19 1004.5 888.3 +24.8 11
С 2 н/о гроза без осадков 8/4 600 м
[Cb calv Ac As]
+15.1 +14.1 94 +15 +15 1004.1 888.5
С 1 н/о {гроза} 4/3 600 м
[Cb calv Ac cuf Ci fib]
+14.7 +13.8 94 +15 +15 1003.7 888.6
С 3 4000 м туман местами 8/6 600 м
[Sc Ac lent Ci fib]
+11.6 +11.0 96 +10 +10 1005.2 888.4
С 2 10 км туман местами 4/1 600 м
[Cu med, cong Cc]
+15.7 +12.7 82 +16 +20 1004.0 888.2 +12.3
Ю 2 20 км {туман} 9/3 600 м
[Cu med, cong Ac trans Cc]
+20.7 +14.3 67 +24 +30 комфорт 1003.4 888.0
ЮВ 3 20 км {туман} 6/5 600 м
[Cb calv Ci]
+23.7 +13.5 53 +26 +32 жарко 1000.6 886.6
штиль 0 20 км 4/3 600 м
[Cb cap Ac lent]
+26.6 +13.6 45 +29 +33 жарко 999.6 885.3
штиль 0 20 км 6/3 600 м
[Cb calv Ac trans Cs]
+21.4 +13.8 62 +24 +24 комфорт 998.4 885.3 +26.6
Ю 2 н/о 3/0
[Ac lent]
+18.3 +14.7 80 +19 +19 1000.3 885.9
С 1 н/о 1/0
[Ac lent]
+14.9 +13.7 93 +15 +15 1000.7 886.2
штиль 0 20 км туман местами 1/0
[Ac lent Cc]
+13.2 +11.7 91 +13 +13 1002.9 886.2
штиль 0 20 км {туман} 6/0
[Ac lent]
+15.3 +12.0 81 +15 +18 1003.1 886.6 +12.8
Ю 1 20 км 4/1 600 м
[Cu med, cong Ac lent Cc]
+22.1 +14.7 63 +25 +38 комфорт 999.2 886.0
ЮВ 3 20 км 5/4 600 м
[Cb cap Cc]
+26.5 +14.8 49 +29 +36 жарко 996.9 883.3
З 9 4000 м гроза, ливневой дождь 10/10 600 м
[Cb cap]
+20.7 +12.6 60 +22 +22 комфорт 998.2 883.1
штиль 0 20 км в посл. час ливневой дождь {гроза} 9/4 600 м
[Cb cap Ac cuf Cs]
+17.0 +14.4 85 +17 +17 999.3 884.2 +27.4 3
штиль 0 н/о 5/5 600 м
[Cb calv]
+15.7 +14.0 90 +15 +15 998.5 884.2
штиль 0 н/о 3/0
[Ac lent Cc]
+13.7 +13.0 96 +13 +13 998.1 884.2
штиль 0 4000 м туман местами 4/0
[Ac lent]
+12.2 +11.7 97 +12 +12 999.1 883.7
С 1 10 км туман местами 9/3 600 м
[Cu med, cong Ac lent Cc]
+14.6 +13.1 91 +15 +17 999.8 884.1 +12.1
С 2 4000 м осадки на расстоянии 9/9 600 м
[Cb cap]
+18.4 +14.6 79 +19 +21 999.3 884.1
С 2 10 км осадки на расстоянии {ливн. дождь} 9/9 600 м
[Cb cap]
+19.9 +12.4 62 +22 +24 комфорт 999.2 883.9
В 3 4000 м осадки на расстоянии 9/9 600 м
[Cb cap]
+19.5 +13.4 68 +21 +22 комфорт 1000.1 884.4
С 3 20 км 9/9 600 м
[Cb calv]
+17.3 +13.9 80 +17 +17 1001.5 885.7 +20.8 0.9
СВ 2 н/о 5/5 600 м
[Sc]
+14.4 +13.5 94 +14 +14 1002.3 886.5
СЗ 3 н/о 8/0
[Ac lent]
+15.3 +11.8 80 +15 +15 1002.2 886.9
штиль 0 4000 м дымка {туман} 10/0
[Ac As]
+15.9 +11.0 73 +16 +16 1003.7 888.2
С 3 4000 м дымка {туман} 9/8 600 м
[Sc Ac lent]
+17.2 +10.3 64 +17 +18 1005.7 889.8 +14.4
С 5 4000 м дымка 9/5 600 м
[Cb calv Ac trans Cs]
+20.2 +10.0 52 +22 +24 комфорт 1006.0 890.1
С 3 4000 м дымка 9/8 600 м
[Cb calv Ci]
+21.7 +9.3 45 +23 +25 комфорт 1005.4 890.1
С 4 10 км дымка 8/4 600 м
[Cb calv Ac lent Cc]
+22.8 +8.8 41 +24 +26 комфорт 1005.5 890.4
С 1 20 км 8/8 600 м
[Cb calv]
+19.0 +12.7 67 +21 +21 комфорт 1007.1 891.4 +23.5
штиль 0 н/о 5/0
[Ac lent]
+16.4 +11.9 75 +16 +16 1009.0 893.1
СЗ 3 н/о 1/0
[Ci fib]
+13.8 +10.5 80 +13 +13 1009.0 893.0
З 2 10 км дымка 6/5 600 м
[Cu Sc Ci fib]
+13.7 +9.9 78 +13 +13 1009.2 893.3
З 3 10 км дымка 3/1 600 м
[Cu med, cong Cs]
+16.0 +10.5 70 +16 +19 1009.8 893.6 +12.2
С 3 4000 м дымка 8/4 600 м
[Cb calv Cs]
+20.1 +9.9 52 +22 +28 комфорт 1008.3 892.5
З 2 4000 м дымка 5/4 600 м
[Cb calv Ci]
+22.8 +9.8 44 +25 +33 комфорт 1006.1 890.6
З 2 4000 м дымка 3/3 600 м
[Cu med, cong]
+22.8 +8.1 39 +24 +28 комфорт 1005.7 890.2
З 2 4000 м дымка 4/0 600 м
[Ac As]
+16.7 +12.0 74 +17 +17 1006.1 889.9 +23.7
З 1 н/о 1/0
[Ac lent]
+12.4 +9.3 81 +12 +12 1006.9 890.5
штиль 0 н/о ясно +10.0 +8.4 90 +9 +9 1005.9 889.7
ЮЗ 1 10 км дымка 1/0
[Ac lent]
+8.4 +7.4 93 +8 +8 1005.8 889.3
штиль 0 10 км дымка 10/10 600 м
[Sc]
+16.7 +11.1 70 +17 +17 1003.5 888.5
З 3 20 км в посл. час ливневой дождь 9/9 600 м
[Cb calv]
+19.0 +10.5 58 +20 +20 1004.2 887.2
Местоположение метеостанции Биндэр (Монголия): широта 48.62 долгота 110.60 высота над уровнем моря 747 м.
В архиве по умолчанию представлена погода в Биндэре за последнюю неделю. Архивные данные за месяц целиком и за предыдущие месяцы, начиная с января 2011 года, Вы можете получить, выбрав интересующий диапазон дат из раскрывающегося списка и нажав кнопку "Найти!".
*Определитесь, кто Вы:
Внимание! Время в таблицах - всемирное. Для получения местного времени необходимо прибавить поправку, которая равна 8 ч.
Смотрите также архив погоды в соседних городах и на ближайших метеорологических станциях:
Партнеры нашего сайта:      
Пояснения к столбцам:
  • Ветер - указаны скорость ветра в м/с - средняя за 10 мин, порывы в срок и между сроками (в фигурных скобках) и направление, откуда дует ветер: С - северный,
  • СВ - северо-восточный, В - восточный, ЮВ - юго-восточный, Ю - южный, ЮЗ - юго-западный, З - западный, СЗ - северо-западный.
  • Видимость - горизонтальная дальность видимости в метрах или километрах. При видимости от 1 до 10 км при отсутствии осадков обычно наблюдается дымка, при ухудшении видимости до 1 км и менее - туман. В сухую погоду видимость может ухудшаться дымом, пылью или мглою.
  • Явления - указаны атмосферные явления, наблюдавшиеся в срок или в последний час перед сроком; фигурными скобками обозначены явления, наблюдавшиеся между сроками (за 1-3 часа до срока); квадратными скобками обозначены град или гололедные отложения с указанием их диаметра в мм.
  • Облачность - указаны через наклонную черту общая и нижняя облачность в баллах и высота нижней границы облаков в метрах; квадратными скобками обозначены формы облаков: Ci - перистые, Cs - перисто-слоистые, Cc - перисто-кучевые, Ac - высококучевые, As - высокослоистые, Sc - слоисто-кучевые, Ns - слоисто-дождевые, Cu - кучевые, Cb - кучево-дождевые. Подробнее классификацию облаков см. в Атласе облаков (PDF).
  • T - Температура воздуха - температура, измеренная на высоте 2 м над землей.
  • Td - Температура точки росы - температура, при понижении до которой содержащийся в воздухе водяной пар достигнет насыщения.
  • f - Относительная влажность воздуха - влажноcть воздуха, измеренная на высоте 2 м над землей.
  • Te - Эффективная температура - температура, которую ощущает одетый по сезону человек в тени. Характеристика душности погоды. При расчете учитывается влияние влажности воздуха и скорости ветра на теплоощущения человека.
  • Tes - Эффективная температура на солнце - температура, которую ощущает человек, с поправкой на солнечный нагрев. Характеристика знойности погоды. Зависит от высоты солнца над горизонтом, облачности и скорости ветра. Ночью, в пасмурную погоду, а также при ветре 12 м/с и более поправка равна нулю.
  • P - Атмосферное давление - приведенное к уровню моря атмосферное давление.
  • Po - Атмосферное давление - измеренное на уровне метеостанции атмосферное давление.
  • Tmin - Минимальная температура - минимум температуры воздуха на высоте 2 м над землей.
  • Tmax - Максимальная температура - максимум температуры воздуха на высоте 2 м над землей.
  • R - Количество осадков - Количество выпавших осадков за период времени, мм. При наведении курсора мыши на число - период времени, за который выпало указанное количество осадков.
  • R24 - Количество осадков - Количество выпавших осадков за 24 часа, мм.
  • S - Снежный покров - Высота снежного покрова, см. При наведении курсора мыши на число - состояние снежного покрова и степень покрытия местности в баллах.